TimeMDT,TemperatureF,Dew PointF,Humidity,Sea Level PressureIn,VisibilityMPH,Wind Direction,Wind SpeedMPH,Gust SpeedMPH,PrecipitationIn,Events,Conditions,WindDirDegrees,DateUTC
2:48 AM,48.0,45.0,89,29.99,-9999.0,West,3.5,-,N/A,,Unknown,280,2013-06-16 08:48:00
3:48 AM,48.9,45.0,86,29.99,-9999.0,WNW,8.1,-,N/A,,Unknown,300,2013-06-16 09:48:00
4:48 AM,46.0,44.1,93,30.01,-9999.0,WNW,3.5,-,N/A,,Unknown,290,2013-06-16 10:48:00
5:48 AM,46.9,45.0,93,30.02,-9999.0,WNW,4.6,-,N/A,,Unknown,290,2013-06-16 11:48:00
6:48 AM,53.1,48.0,83,30.02,-9999.0,West,4.6,-,N/A,,Unknown,280,2013-06-16 12:48:00
7:48 AM,57.9,51.1,78,30.02,-9999.0,WNW,3.5,-,N/A,,Unknown,290,2013-06-16 13:48:00
8:48 AM,64.9,48.9,56,30.04,-9999.0,NNW,9.2,-,N/A,,Unknown,330,2013-06-16 14:48:00
9:48 AM,66.9,46.9,49,30.05,-9999.0,NW,15.0,-,N/A,,Unknown,320,2013-06-16 15:48:00
10:48 AM,68.0,50.0,52,30.05,-9999.0,NW,13.8,-,N/A,,Unknown,310,2013-06-16 16:48:00
11:48 AM,69.1,50.0,51,30.06,-9999.0,NW,19.6,24.2,N/A,,Unknown,310,2013-06-16 17:48:00
12:48 PM,71.1,46.9,42,30.06,-9999.0,NW,18.4,25.3,N/A,,Unknown,310,2013-06-16 18:48:00
1:48 PM,72.0,48.9,44,30.05,-9999.0,NW,19.6,26.5,N/A,,Unknown,320,2013-06-16 19:48:00
2:48 PM,71.1,48.9,45,30.06,-9999.0,NNW,15.0,20.7,N/A,,Unknown,330,2013-06-16 20:48:00
3:48 PM,73.0,48.9,42,30.05,-9999.0,NNW,13.8,-,N/A,,Unknown,340,2013-06-16 21:48:00
4:48 PM,72.0,48.9,44,30.05,-9999.0,NW,13.8,23.0,N/A,,Unknown,320,2013-06-16 22:48:00
5:48 PM,71.1,48.9,45,30.06,-9999.0,NNW,16.1,23.0,N/A,,Unknown,340,2013-06-16 23:48:00
6:48 PM,70.0,46.9,44,30.06,-9999.0,NNW,16.1,20.7,N/A,,Unknown,340,2013-06-17 00:48:00
7:48 PM,68.0,46.9,47,30.07,-9999.0,NNW,9.2,-,N/A,,Unknown,340,2013-06-17 01:48:00
8:48 PM,62.1,51.1,67,30.08,-9999.0,NNW,5.8,-,N/A,,Unknown,330,2013-06-17 02:48:00
9:48 PM,61.0,51.1,70,30.10,-9999.0,NE,5.8,-,N/A,,Unknown,40,2013-06-17 03:48:00
10:48 PM,57.9,51.1,78,30.12,-9999.0,Calm,Calm,-,N/A,,Unknown,0,2013-06-17 04:48:00
11:48 PM,54.0,50.0,86,30.12,-9999.0,Calm,Calm,-,N/A,,Unknown,0,2013-06-17 05:48:00